{"data":{"norad_id":61848,"intl_designator":"2024-202D","name":"STARLINK-32427","alt_names":[],"object_type":"PAYLOAD","status":"ACTIVE","operator":null,"country":"US","launch_date":"2024-11-07","launch_site_code":"AFETR","launch_vehicle":null,"mission":null,"orbit_class":"UNKNOWN","rcs_meters":null,"size_class":null,"mass_kg":null,"dimensions":null,"purposes":["comms"],"wikipedia_slug":null,"has_3d_model":false,"image_url":null,"decayed_at":null,"tle_current":{"epoch":"2026-09-21T21:35:22.893792Z","epoch_age_seconds":67592,"freshness":"FRESH","line1":"1 61848U 24202D   26264.89957053  .00000990  00000+0  45503-4 0  9991","line2":"2 61848  43.0011 198.8052 0001335 276.1965  83.8734 15.27574647105466","mean_motion":15.27574647,"eccentricity":0.0001335,"inclination_deg":43.0011,"raan_deg":198.8052,"arg_perigee_deg":276.1965,"mean_anomaly_deg":83.8734,"bstar":4.5503e-5,"rev_number":10546,"period_min":94.267079047693,"perigee_km":482.14915441052,"apogee_km":483.98109537787,"semimajor_km":6861.2021248942,"source":"CELESTRAK","updated_at":"2026-09-22T09:00:49.440177Z"}}}